Location: Étouvelles
(49.5207°N, 3.5808°E)
Time: 14:11:13
(UTC+00:00)

CSL-04 Rocket - Pass Details

Date: 03 February 2023
Orbit: 806 x 859 km, 98.8° (Epoch: 21 March)

Event Time Altitude Azimuth Distance (km) Brightness Sun altitude
Exits shadow 18:47:15 39° 98° (E) 1,220 4.0 -20.1°
Maximum altitude 18:48:23 44° 66° (ENE) 1,124 3.9 -20.3°
Drops below altitude 10° 18:53:29 10° 356° (N) 2,451 6.1 -21.1°
Sets 18:55:57 0° 350° (N) 3,397 7.0 -21.5°
